Tracking 30995 objects as of 6-Jul-2025
HD Live streaming from Space Station
objects crossing your sky now

STARLINK-2452

Track STARLINK-2452 now!
10-day predictions
STARLINK-2452 is classified as:


NORAD ID: 48115
Int'l Code: 2021-027Z
Perigee: 553.6 km
Apogee: 555.2 km
Inclination: 53.1 °
Period: 95.6 minutes
Semi major axis: 6925 km
RCS: Unknown
Launch date: April 7, 2021
Source: United States (US)
Launch site: AIR FORCE EASTERN TEST RANGE (AFETR)
Your satellite tracking list
Your tracking list is empty




NASA's NSSDC Master Catalog

Two Line Element Set (TLE):
1 48115U 21027Z   25186.40469599  .00001243  00000-0  10231-3 0  9999
2 48115  53.0534 191.7317 0001168  82.7963 277.3158 15.06395454235286
Source of the keplerian elements: AFSPC